Location: Unspecified
(0.0000°N, 0.0000°E)
Time: 05:39:16
(UTC+00:00)

Tiros 1 despin weight - Pass Details

Date: 01 October 2020
Orbit: 594 x 641 km, 48.2° (Epoch: 28 October)

Event Time Altitude Azimuth Distance (km) Brightness Sun altitude
Rises 07:47:36 0° 226° (SW) 2,825 ? 29.4°
Reaches altitude 10° 07:49:55 10° 229° (SW) 1,920 ? 30.0°
Maximum altitude 07:54:14 59° 309° (NW) 685 ? 31.1°
Drops below altitude 10° 07:58:34 10° 29° (NNE) 1,916 ? 32.2°
Sets 08:00:52 0° 32° (NNE) 2,819 ? 32.8°
